Wetbulb
59.00 58.65 58.24 58.14 57.90 57.92 58.05 58.03 57.57 57.16 56.81 56.57 56.53 56.31 56.22 56.21 55.40 51.16 43.75 50.41 53.37 54.74 55.91 52.33 50.91 49.75 50.97 50.96 54.09 54.08 44.86 41.35 43.91 44.68 46.40 48.89 48.34 49.60 47.38 45.83 48.12 49.98 47.94 46.89 48.70
59.51 59.28 59.01 59.18 58.56 58.43 58.52 58.52 58.24 57.54 57.05 56.67 56.25 56.20 56.02 55.72 50.13 46.16 52.34 54.11 53.98 54.73 51.18 48.46 45.59 48.26 46.92 48.54 51.02 48.22 43.39 44.44 47.56 47.45 46.73 48.45 46.97 47.29 44.41 46.39 46.55 45.48 45.62 47.14 47.46
59.21 58.88 59.33 59.40 59.36 59.15 59.01 58.95 58.65 58.24 57.27 56.75 56.17 55.96 55.75 54.27 45.28 45.47 53.35 53.20 53.44 54.69 52.32 50.41 47.79 47.94 45.77 48.00 48.71 47.60 42.77 46.41 46.99 47.29 46.57 46.54 44.14 46.54 42.12 43.14 46.89 45.67 44.20 44.78 44.74
56.23 56.35 56.92 57.19 58.01 58.71 59.05 59.11 59.06 58.78 57.55 56.53 56.24 55.86 55.90 50.08 35.40 46.63 50.99 51.89 52.94 52.76 50.98 47.48 44.89 43.88 43.59 43.61 48.41 43.98 47.54 48.03 46.59 44.92 43.95 42.42 43.48 41.07 42.61 43.48 42.55 42.73 44.69 43.87 42.58
54.79 54.68 54.71 54.89 55.91 56.62 57.42 57.86 58.51 58.61 57.57 56.01 55.97 55.64 51.55 42.77 42.44 48.36 50.21 50.40 51.00 50.38 48.17 45.09 43.00 44.04 41.80 44.40 45.72 44.93 46.09 46.68 47.13 42.67 41.07 43.05 39.81 39.54 40.08 43.12 42.62 42.87 42.73 40.48 41.34
53.44 53.61 53.48 53.79 54.44 55.57 56.74 57.48 58.03 58.22 55.97 55.12 55.48 55.19 46.37 37.19 47.81 48.63 48.98 49.16 49.58 49.12 47.44 46.29 44.91 46.34 42.79 43.05 42.82 42.38 44.10 44.99 42.35 41.54 41.87 38.50 38.30 39.01 39.53 42.54 42.20 41.42 40.06 40.41 41.43
52.18 52.24 52.54 52.95 53.45 54.05 55.05 56.04 57.33 56.40 54.65 54.70 55.41 52.56 43.63 41.36 47.85 49.27 48.66 48.28 49.33 49.17 46.39 48.10 47.63 44.83 44.51 40.74 43.23 41.85 37.80 41.31 39.99 39.60 38.30 37.51 34.16 35.50 39.54 39.29 39.75 39.92 39.26 41.17 41.78
50.21 50.25 51.06 51.72 52.21 52.83 53.75 55.60 56.62 54.96 54.50 54.60 55.59 49.71 39.59 47.08 48.16 47.56 48.34 47.09 48.85 49.49 48.57 49.27 47.86 45.31 42.82 42.90 40.94 36.73 36.06 30.48 38.41 39.40 37.50 35.35 30.63 38.07 39.66 38.59 37.66 38.37 37.86 39.89 40.77
48.57 48.77 49.51 50.36 51.00 51.76 52.69 54.52 56.11 53.39 54.19 55.17 50.25 45.49 38.81 47.79 43.81 47.01 48.01 45.54 46.77 47.28 47.71 47.14 46.80 42.26 40.90 35.93 32.40 34.16 27.89 30.53 32.97 38.24 36.57 34.06 31.94 35.96 37.91 36.82 36.38 37.10 37.83 38.78 39.94
47.65 47.84 48.14 48.73 49.49 50.42 52.28 54.67 55.53 51.19 52.60 51.73 47.28 40.01 41.86 39.98 44.34 45.59 47.52 47.62 45.53 44.33 42.99 42.44 40.28 36.08 35.48 32.84 26.28 28.78 27.91 32.39 32.23 33.74 33.76 32.13 31.85 35.88 36.77 36.91 35.91 36.84 37.18 37.43 39.26
47.64 48.02 47.96 48.22 48.40 49.43 49.56 50.89 47.92 44.76 46.35 42.75 44.78 40.62 41.35 43.38 45.39 43.37 46.40 44.76 44.89 42.32 35.85 39.71 33.40 29.20 33.35 35.16 36.18 33.79 30.92 30.73 32.82 33.59 30.78 31.03 32.28 34.88 37.08 36.37 35.55 35.98 36.84 37.24 38.51
49.03 48.81 48.61 48.46 48.54 49.13 49.80 46.14 44.27 44.44 37.36 46.29 46.88 46.93 44.18 44.04 38.56 41.03 45.65 39.43 38.91 34.14 37.67 33.94 29.04 36.09 38.36 37.76 35.72 32.95 29.35 29.47 30.73 33.12 29.46 30.04 31.13 35.39 36.82 36.81 36.67 36.51 36.46 37.53 38.49
47.67 47.95 48.41 49.38 49.94 50.60 49.03 44.76 49.24 48.47 39.25 44.00 45.74 43.54 42.49 42.48 39.10 38.49 42.01 40.31 36.76 34.22 34.59 31.08 34.00 37.73 36.04 32.40 32.36 30.55 29.27 29.53 28.06 30.76 31.07 28.78 28.44 33.20 36.14 37.00 37.50 36.98 38.21 38.64 38.27
46.34 46.72 47.35 48.58 47.31 45.33 45.19 47.75 49.36 49.32 35.86 38.66 38.49 40.17 41.53 42.03 37.26 42.64 43.22 40.20 37.00 33.36 35.19 33.41 35.92 34.25 31.76 32.32 32.77 26.80 32.39 31.42 30.26 26.87 23.30 30.21 20.91 31.77 34.44 34.33 35.89 36.86 36.40 37.43 38.56
45.37 45.91 46.47 47.30 42.32 41.78 46.65 48.42 48.06 45.83 20.62 39.80 36.67 44.18 42.39 37.87 36.98 37.09 42.30 39.43 34.11 33.48 34.14 30.83 31.17 30.37 30.94 32.60 34.94 30.06 32.67 30.68 30.60 25.92 24.51 25.31 21.22 29.66 33.84 33.21 34.18 35.42 36.71 37.20 39.20
44.24 44.35 44.96 43.88 43.64 45.33 47.76 48.71 46.07 33.10 19.20 31.64 37.26 35.33 34.87 37.08 37.50 37.73 37.52 39.48 37.80 34.05 33.68 30.28 34.14 33.32 31.97 32.88 32.84 33.83 31.21 30.56 28.56 26.77 16.74 26.51 24.47 26.71 30.03 33.30 34.66 36.10 36.94 38.46 39.76
44.38 44.25 42.51 43.61 39.39 44.73 46.52 45.08 30.25 23.94 35.69 31.36 31.89 35.58 34.75 33.82 34.78 34.99 32.73 30.57 27.98 25.12 24.88 28.54 29.21 31.80 34.05 28.82 32.66 31.66 26.52 21.10 17.22 14.03 16.86 26.03 22.57 27.81 31.75 32.90 35.88 36.27 36.79 38.06 39.34
44.47 44.75 43.87 43.39 45.78 45.80 43.66 37.05 22.56 27.71 29.83 36.72 33.84 34.76 31.47 34.93 33.94 34.12 32.04 28.19 32.06 31.01 27.54 24.20 21.23 28.48 32.05 30.16 27.21 27.35 28.20 26.15 15.09 19.36 20.32 23.13 18.01 27.78 33.06 35.93 36.74 37.85 38.28 39.09 38.63
43.94 40.33 41.49 45.15 46.97 47.01 39.44 27.74 24.68 29.01 33.43 32.52 31.91 28.27 29.43 32.41 32.90 32.16 30.91 30.97 33.80 32.69 26.79 26.59 25.05 29.51 30.94 32.38 31.34 26.81 22.22 27.91 22.00 15.61 16.49 23.44 26.50 33.05 32.91 32.60 33.35 33.47 34.55 35.77 38.37
38.39 36.46 40.14 46.39 47.19 42.63 32.89 28.07 30.14 37.90 38.88 36.50 29.57 30.24 27.80 27.67 27.49 28.69 29.42 34.28 34.04 34.94 35.27 32.52 25.42 27.55 29.21 32.36 31.99 27.39 29.43 22.87 20.62 13.83 12.36 21.95 23.91 25.00 28.06 30.25 32.31 32.51 32.82 35.41 37.43
37.43 30.99 42.33 45.08 45.33 36.79 26.18 29.07 32.06 37.93 37.81 35.15 30.59 31.14 30.68 28.00 28.52 27.82 29.84 34.19 35.88 33.85 35.21 32.86 31.64 23.78 26.79 23.61 24.15 24.28 23.32 25.89 26.99 26.48 19.85 17.75 23.72 31.57 31.92 31.93 30.68 32.28 34.13 34.96 36.69
34.73 24.83 40.07 40.15 29.82 31.61 28.30 31.20 36.56 34.28 37.34 34.76 36.99 34.38 31.06 32.29 29.72 30.88 31.47 33.67 35.81 33.90 28.38 31.95 29.50 21.59 22.95 27.99 29.93 29.30 26.88 27.56 24.51 18.85 20.96 20.87 23.10 31.96 33.41 35.19 34.39 33.67 34.64 35.86 36.52
30.59 29.57 39.14 39.54 22.23 24.87 29.36 29.60 30.28 31.43 32.78 33.69 33.63 36.48 36.21 31.11 27.93 30.06 31.86 33.71 34.96 32.46 29.01 30.14 25.69 18.40 20.42 23.71 25.86 22.98 26.40 27.59 25.61 25.91 20.23 17.86 21.62 31.40 32.79 32.29 32.51 33.26 33.46 33.95 34.12
31.52 23.00 31.01 34.61 32.48 26.86 23.68 23.09 25.10 29.48 30.11 33.21 32.24 34.42 32.82 31.67 31.28 28.08 31.71 32.30 33.06 32.93 33.61 35.13 30.04 21.72 19.80 24.47 25.69 21.98 24.85 27.01 25.87 18.05 17.93 22.84 23.29 29.89 31.10 28.74 30.13 31.03 32.57 33.50 32.57
32.51 25.65 27.53 20.04 22.33 24.59 24.67 22.93 20.60 22.15 28.62 29.42 30.01 29.55 29.44 27.48 28.67 28.34 32.48 30.75 31.78 32.91 31.98 31.19 22.27 27.46 29.19 27.12 24.17 25.74 25.91 26.02 21.78 23.49 20.83 22.04 26.26 30.91 33.18 28.77 29.17 31.51 33.01 32.62 32.58
28.20 27.43 29.47 25.11 25.65 23.29 23.03 19.56 20.68 22.25 23.96 21.84 21.39 24.67 27.20 26.01 25.58 22.59 24.65 32.27 31.02 29.31 27.08 27.89 19.77 24.42 22.72 27.44 26.31 23.81 25.47 25.15 25.22 24.06 23.26 24.87 24.09 33.94 35.91 34.73 30.86 30.36 27.72 29.37 28.49
34.22 34.95 29.68 25.32 23.03 20.79 20.57 21.10 21.51 24.07 24.64 26.52 26.80 23.98 22.62 26.49 27.98 27.96 29.10 31.71 34.73 28.95 25.90 25.05 24.45 22.62 21.51 25.48 25.39 18.40 24.68 25.67 23.59 23.38 24.19 19.95 26.58 31.47 31.97 32.41 32.48 30.41 30.33 30.17 29.90
MSLP
1017.46 1017.18 1016.92 1016.60 1016.37 1016.08 1015.81 1015.51 1015.19 1014.94 1014.59 1014.19 1013.94 1013.77 1013.48 1013.30 1012.90 1012.54 1011.94 1011.44 1011.47 1011.62 1011.75 1011.53 1011.16 1010.94 1010.81 1010.17 1009.53 1009.28 1009.27 1008.20 1007.53 1007.01 1006.58 1006.90 1007.03 1007.47 1007.89 1008.03 1008.11 1008.45 1009.30 1010.28 1010.52
1017.45 1017.21 1016.88 1016.63 1016.32 1016.06 1015.76 1015.44 1015.08 1014.74 1014.40 1014.02 1013.75 1013.63 1013.31 1013.18 1012.79 1011.86 1011.22 1011.21 1011.45 1011.66 1011.70 1011.26 1010.88 1010.70 1010.52 1010.00 1009.62 1009.25 1008.98 1007.86 1007.21 1007.05 1007.19 1007.32 1007.62 1007.76 1008.30 1008.36 1008.50 1009.13 1010.07 1010.53 1010.79
1017.54 1017.31 1017.00 1016.62 1016.25 1015.90 1015.55 1015.25 1014.94 1014.57 1014.23 1013.94 1013.68 1013.46 1013.28 1013.16 1012.50 1010.97 1011.12 1011.27 1011.46 1011.75 1011.54 1011.01 1010.57 1010.45 1010.33 1009.63 1009.37 1009.01 1008.56 1007.84 1007.53 1007.90 1008.26 1008.26 1008.43 1008.34 1008.49 1008.56 1008.45 1008.85 1009.60 1010.34 1010.67
1017.92 1017.66 1017.28 1016.84 1016.35 1015.83 1015.38 1015.07 1014.72 1014.30 1013.90 1013.68 1013.52 1013.37 1013.09 1013.00 1012.37 1011.17 1011.29 1011.35 1011.47 1011.63 1011.41 1011.02 1010.68 1010.43 1010.14 1009.49 1009.02 1009.04 1008.45 1008.17 1008.23 1008.86 1009.31 1009.37 1009.15 1008.91 1008.92 1008.71 1008.63 1008.87 1009.02 1009.93 1010.57
1018.18 1017.89 1017.46 1017.04 1016.52 1015.94 1015.35 1014.88 1014.48 1013.99 1013.55 1013.31 1013.29 1013.27 1013.06 1012.62 1011.39 1011.19 1011.24 1011.32 1011.37 1011.51 1011.20 1010.81 1010.56 1010.25 1009.77 1009.27 1009.18 1008.95 1008.64 1008.39 1008.43 1009.22 1009.95 1009.97 1009.86 1009.65 1008.89 1008.59 1008.76 1009.27 1009.76 1010.06 1010.46
1018.39 1017.99 1017.53 1017.04 1016.59 1015.97 1015.33 1014.63 1014.09 1013.51 1013.03 1012.85 1012.97 1013.15 1012.92 1012.11 1010.91 1011.03 1011.11 1011.25 1011.13 1011.17 1011.00 1010.74 1010.34 1009.98 1009.73 1009.37 1009.37 1009.14 1009.05 1008.99 1009.21 1009.71 1010.23 1010.46 1010.07 1009.76 1008.43 1008.36 1008.77 1009.13 1009.79 1010.29 1010.39
1018.58 1018.11 1017.57 1017.02 1016.47 1015.88 1015.11 1014.35 1013.59 1013.06 1012.63 1012.52 1012.73 1012.88 1012.24 1011.16 1010.64 1010.99 1011.02 1011.06 1011.03 1011.01 1010.87 1010.63 1010.55 1010.25 1010.02 1009.83 1009.62 1009.72 1009.76 1009.19 1009.25 1010.07 1010.57 1010.80 1010.18 1008.92 1008.39 1008.52 1008.71 1009.11 1009.44 1009.92 1010.26
1018.87 1018.30 1017.67 1016.98 1016.37 1015.67 1014.86 1013.93 1013.26 1012.82 1012.46 1012.39 1012.67 1012.53 1011.55 1010.79 1010.61 1010.79 1011.03 1011.11 1011.14 1011.14 1011.12 1010.91 1010.89 1010.75 1010.76 1010.57 1010.40 1010.36 1010.17 1009.83 1008.58 1009.84 1010.86 1011.25 1009.35 1007.76 1007.83 1008.55 1009.00 1009.14 1009.54 1009.78 1010.06
1019.01 1018.41 1017.69 1016.96 1016.33 1015.63 1014.66 1013.65 1012.82 1012.56 1012.47 1012.47 1012.69 1012.26 1011.24 1011.09 1010.83 1010.64 1010.90 1010.88 1011.14 1011.23 1011.30 1011.20 1011.13 1011.04 1011.22 1010.99 1010.81 1010.33 1010.06 1009.69 1009.79 1009.90 1010.68 1011.07 1009.35 1008.21 1008.11 1008.45 1008.86 1009.01 1009.25 1009.69 1010.04
1019.05 1018.49 1017.79 1017.10 1016.39 1015.60 1014.56 1013.03 1012.17 1012.56 1012.43 1012.12 1011.83 1012.18 1010.91 1010.75 1010.83 1010.81 1010.96 1010.88 1011.16 1011.32 1011.49 1011.47 1011.49 1011.28 1011.07 1010.91 1010.29 1009.75 1009.93 1009.45 1009.63 1010.28 1010.66 1010.78 1009.49 1008.78 1008.52 1008.55 1008.66 1008.88 1009.00 1009.41 1009.85
1018.98 1018.40 1017.82 1017.05 1016.26 1015.47 1014.67 1012.85 1012.40 1012.61 1011.99 1010.97 1010.53 1010.46 1010.36 1010.96 1011.00 1010.91 1010.90 1011.07 1011.07 1011.29 1011.16 1011.28 1011.41 1010.62 1010.22 1010.20 1009.39 1009.55 1009.73 1009.65 1009.67 1010.50 1010.88 1010.56 1009.63 1008.50 1007.87 1007.94 1008.06 1008.38 1008.65 1008.97 1009.36
1019.02 1018.44 1017.70 1016.85 1015.95 1015.05 1014.53 1013.65 1014.09 1014.48 1012.55 1010.61 1009.57 1009.36 1009.83 1010.40 1010.74 1010.90 1011.09 1011.27 1010.97 1011.04 1010.97 1011.56 1010.67 1010.25 1009.91 1009.75 1009.90 1009.91 1010.16 1010.08 1010.30 1010.75 1011.17 1010.53 1009.41 1007.83 1007.17 1006.66 1007.04 1007.54 1008.21 1008.43 1009.02
1019.25 1018.59 1017.79 1016.57 1015.24 1014.65 1014.64 1014.61 1014.52 1014.41 1013.24 1009.47 1008.79 1009.01 1009.47 1010.38 1010.05 1010.32 1010.76 1010.70 1010.60 1010.78 1010.66 1010.67 1010.13 1009.79 1009.99 1010.03 1010.20 1010.28 1010.42 1010.36 1010.65 1011.13 1011.24 1011.09 1009.28 1006.99 1005.77 1005.93 1006.22 1006.66 1007.29 1007.94 1008.59
1019.49 1018.89 1018.14 1017.02 1015.30 1015.65 1015.10 1015.24 1014.80 1014.55 1013.28 1010.06 1009.39 1009.34 1009.63 1009.82 1010.03 1010.10 1010.27 1010.36 1010.42 1010.37 1010.51 1010.69 1010.24 1010.32 1010.53 1010.46 1010.63 1010.92 1010.49 1010.73 1011.15 1011.67 1011.83 1011.12 1009.61 1007.06 1005.99 1006.03 1006.39 1006.83 1007.40 1007.69 1008.19
1019.62 1019.09 1018.49 1017.82 1017.21 1016.49 1016.03 1015.40 1014.87 1014.72 1013.05 1009.65 1009.74 1009.84 1009.42 1009.74 1010.33 1010.51 1010.58 1010.52 1010.29 1010.24 1010.44 1010.61 1010.91 1011.05 1011.00 1010.89 1010.76 1011.22 1011.22 1011.52 1011.86 1012.17 1012.13 1011.33 1010.64 1007.10 1005.94 1006.05 1006.19 1006.71 1007.16 1007.43 1008.00
1019.81 1019.15 1018.56 1017.76 1017.20 1016.72 1016.22 1015.49 1015.00 1014.82 1012.22 1010.05 1009.74 1009.77 1009.83 1009.69 1009.76 1010.50 1010.64 1010.76 1010.55 1010.48 1010.73 1011.06 1011.43 1011.53 1011.44 1011.65 1011.61 1011.89 1012.14 1012.42 1012.75 1012.88 1012.73 1010.96 1010.30 1007.48 1005.99 1005.14 1005.15 1006.21 1007.06 1007.58 1008.28
1019.65 1018.85 1018.36 1017.77 1017.13 1016.49 1016.28 1015.44 1015.38 1014.29 1011.49 1010.86 1010.16 1009.82 1009.68 1009.45 1009.53 1009.91 1010.28 1010.49 1010.35 1010.70 1010.72 1011.32 1011.52 1011.95 1012.01 1012.33 1012.56 1012.47 1012.81 1013.27 1013.92 1013.87 1012.51 1011.28 1010.46 1007.25 1005.45 1004.79 1004.78 1005.84 1006.90 1007.56 1008.29
1019.49 1018.50 1017.77 1017.39 1017.07 1016.75 1016.77 1016.23 1015.02 1012.57 1011.87 1010.92 1010.55 1010.12 1009.92 1009.30 1009.30 1009.54 1009.66 1009.81 1009.87 1009.77 1010.03 1010.75 1011.87 1011.82 1012.02 1012.07 1012.24 1012.69 1012.64 1012.61 1012.93 1013.16 1012.72 1012.09 1009.94 1006.48 1005.29 1004.81 1005.04 1005.73 1006.61 1007.43 1008.30
1019.49 1018.29 1017.46 1017.18 1017.06 1017.06 1017.03 1015.79 1013.59 1012.27 1011.47 1011.08 1010.92 1010.75 1010.30 1009.72 1009.71 1009.57 1009.41 1008.82 1008.49 1009.11 1009.84 1009.97 1011.25 1012.13 1012.34 1012.47 1012.86 1012.96 1012.86 1012.51 1012.92 1013.19 1012.75 1010.55 1008.40 1005.93 1005.57 1005.66 1005.99 1006.38 1006.85 1007.45 1008.01
1019.62 1018.44 1017.47 1017.72 1017.37 1017.34 1017.03 1015.25 1013.50 1011.69 1011.44 1011.38 1011.17 1010.69 1010.73 1010.43 1010.21 1009.70 1009.10 1007.73 1007.79 1007.91 1008.99 1009.76 1011.02 1012.18 1012.75 1012.93 1012.98 1013.03 1012.87 1012.92 1013.10 1013.02 1012.26 1009.97 1008.35 1006.56 1006.01 1005.90 1006.34 1006.82 1007.12 1007.63 1007.99
1019.69 1018.92 1017.92 1017.61 1017.68 1017.63 1016.43 1014.95 1013.40 1012.46 1011.94 1011.62 1011.39 1011.18 1010.91 1010.88 1010.46 1009.73 1008.76 1007.82 1007.50 1008.38 1008.92 1009.70 1010.97 1012.70 1012.91 1012.55 1012.19 1012.96 1012.94 1012.68 1012.40 1011.99 1011.42 1010.22 1007.36 1004.77 1004.55 1005.05 1005.81 1006.35 1006.85 1007.44 1007.93
1020.12 1019.54 1017.71 1017.97 1018.22 1017.56 1016.26 1015.16 1014.13 1013.23 1012.55 1012.82 1011.56 1011.21 1011.38 1011.07 1010.64 1009.91 1008.88 1007.99 1007.89 1008.66 1009.46 1009.81 1010.48 1011.56 1011.65 1011.46 1011.50 1011.56 1011.77 1012.03 1012.00 1012.07 1011.39 1010.32 1007.33 1005.11 1004.57 1004.65 1005.37 1006.10 1006.78 1007.29 1007.92
1020.40 1019.58 1018.31 1018.42 1018.29 1017.59 1016.77 1016.07 1015.76 1014.60 1013.77 1013.06 1012.16 1011.27 1011.21 1011.29 1011.38 1010.01 1009.19 1009.06 1008.78 1008.98 1009.40 1009.93 1011.11 1011.60 1011.75 1012.10 1011.83 1011.47 1011.31 1011.41 1011.64 1011.82 1011.01 1010.07 1007.47 1005.83 1005.44 1005.59 1006.01 1006.48 1007.17 1007.83 1008.41
1021.08 1019.87 1018.80 1018.60 1018.65 1018.46 1018.03 1017.10 1016.54 1015.99 1014.79 1013.47 1012.44 1012.22 1012.43 1011.64 1010.97 1010.42 1010.09 1009.92 1009.86 1009.59 1010.01 1010.14 1010.92 1010.73 1010.56 1010.09 1010.02 1010.68 1010.42 1010.83 1011.20 1011.34 1010.60 1008.80 1007.55 1006.59 1006.38 1006.56 1006.80 1007.22 1007.61 1008.09 1008.63
1020.84 1019.89 1019.12 1019.12 1018.93 1018.89 1018.84 1018.55 1017.76 1016.98 1015.93 1015.09 1013.48 1013.38 1013.45 1012.50 1011.82 1011.17 1010.72 1010.76 1010.84 1010.77 1010.76 1010.74 1011.16 1011.04 1010.42 1010.41 1010.02 1009.77 1009.63 1010.08 1010.36 1009.92 1009.71 1008.59 1007.82 1006.69 1006.73 1006.92 1007.27 1007.56 1008.00 1008.50 1008.86
1020.57 1020.07 1019.71 1019.22 1019.22 1019.10 1018.74 1018.24 1017.79 1017.35 1017.22 1016.15 1016.13 1015.02 1014.19 1013.14 1013.55 1012.67 1012.36 1010.42 1010.17 1011.17 1011.53 1011.37 1011.38 1011.10 1010.53 1010.12 1009.78 1009.46 1008.96 1008.88 1009.10 1009.36 1008.81 1008.46 1007.37 1006.66 1006.07 1006.39 1007.06 1007.40 1008.01 1008.96 1008.94
1019.68 1019.21 1018.96 1018.40 1018.54 1018.74 1018.24 1017.62 1017.30 1017.28 1016.68 1016.25 1015.75 1015.39 1014.56 1013.84 1013.71 1013.03 1012.43 1011.57 1010.22 1010.19 1010.99 1011.60 1011.70 1011.63 1010.65 1009.64 1009.67 1008.65 1006.67 1006.74 1007.24 1007.28 1007.42 1007.37 1006.26 1006.15 1005.88 1005.93 1006.40 1006.73 1008.06 1008.60 1008.52
Wind_Speed
12 13 14 15 16 16 17 17 17 16 15 14 14 13 11 12 13 6 7 1 4 2 2 7 6 8 9 8 11 9 7 11 12 13 4 3 4 4 5 2 1 4 6 7 9
12 12 14 14 16 16 17 17 17 17 17 15 13 12 11 11 9 10 3 5 3 2 5 7 9 10 7 10 5 6 8 11 6 7 5 6 2 5 4 7 5 6 8 7 8
16 18 17 16 16 16 17 17 17 17 17 15 13 11 9 10 6 1 6 4 2 4 8 8 9 10 11 8 9 8 12 11 4 6 8 6 1 1 2 6 8 12 14 10 7
19 19 19 19 19 19 18 18 18 17 18 16 13 10 8 5 4 3 2 0 3 5 8 6 6 9 9 10 10 13 12 18 4 7 3 4 6 4 6 6 5 8 8 9 7
19 18 19 20 20 21 20 19 19 18 18 17 11 8 4 4 6 5 2 3 5 5 9 8 9 9 7 11 9 17 11 3 4 7 4 7 6 7 9 9 7 8 4 4 6
20 20 20 21 22 23 22 19 20 21 20 14 9 4 3 6 4 3 3 4 4 7 7 8 4 8 4 9 11 5 7 10 3 2 5 3 6 5 7 11 9 10 8 8 8
21 22 22 22 23 24 25 23 21 22 13 8 7 6 6 8 4 3 4 1 2 5 5 3 6 3 3 2 4 4 5 5 4 6 3 2 8 16 12 4 5 6 7 9 9
21 22 23 24 26 26 27 26 22 15 8 0 7 5 6 3 2 3 4 3 2 3 4 3 5 2 4 1 1 4 3 3 4 12 5 5 9 3 11 11 9 9 8 8 8
22 24 25 25 26 27 28 29 21 7 0 6 5 4 4 1 3 5 3 3 4 3 1 2 3 1 1 3 3 6 4 8 3 6 5 9 8 5 5 5 8 9 9 8 7
22 23 24 25 26 27 27 29 7 1 5 6 5 3 4 1 4 2 2 5 2 6 3 3 3 3 4 6 6 6 5 5 8 7 4 6 17 11 8 8 9 9 10 10 9
22 23 24 25 26 26 17 9 2 4 5 7 9 8 3 4 2 4 3 4 4 4 5 6 5 10 9 10 8 4 5 5 6 3 3 10 15 14 10 12 10 10 9 10 9
22 25 25 28 31 24 11 4 4 2 11 13 18 14 4 4 3 6 3 7 5 7 7 3 11 9 3 5 11 2 4 7 2 6 2 6 13 15 12 11 15 14 10 9 9
25 26 29 30 29 7 10 8 5 4 7 10 2 5 6 7 6 11 10 4 5 8 9 6 1 4 3 2 3 4 7 5 2 4 7 6 9 6 3 3 1 1 7 9 10
24 25 28 33 5 12 3 11 7 4 5 6 4 3 5 5 4 4 8 2 5 5 7 9 3 4 3 4 7 4 1 3 3 1 3 4 7 5 6 7 6 6 7 8 9
23 25 24 24 9 8 7 9 7 3 6 4 4 2 5 6 6 3 3 1 6 6 4 3 5 5 4 2 8 2 2 2 1 3 4 4 1 10 4 7 8 9 8 9 10
23 25 24 10 6 4 11 13 3 1 10 2 4 6 5 8 4 5 5 3 3 2 2 2 1 3 2 4 3 7 4 2 1 1 1 10 7 6 6 6 7 9 7 8 9
26 28 18 9 6 12 8 4 2 5 6 4 3 4 8 7 8 7 9 8 6 5 6 3 4 2 2 5 2 4 4 1 3 2 7 3 0 10 3 1 6 10 10 10 10
27 27 8 7 7 5 4 2 8 3 6 2 2 3 5 5 5 9 7 6 12 5 1 7 5 10 8 2 6 7 4 4 8 4 3 3 8 8 4 7 8 9 10 10 10
24 8 5 5 5 2 3 6 6 5 4 3 2 2 5 3 1 6 8 6 7 15 8 6 5 2 3 4 2 5 4 1 4 1 4 6 8 5 6 4 6 6 4 6 10
8 8 2 7 7 1 4 10 6 6 2 2 5 6 4 4 6 8 8 6 8 13 5 2 2 1 3 0 2 1 3 3 2 3 4 4 4 8 8 10 9 9 9 9 7
5 6 4 6 2 2 8 7 6 14 15 7 5 4 5 5 6 5 6 2 7 4 8 5 7 3 4 8 9 4 3 3 1 3 5 1 8 5 9 12 14 11 10 9 9
3 4 6 6 3 3 6 5 4 15 18 9 11 9 5 3 5 5 7 2 7 8 8 1 4 5 9 4 3 3 6 6 5 6 3 3 8 2 4 7 9 8 8 6 8
4 5 3 2 4 5 6 11 12 11 15 6 8 7 4 5 4 7 5 3 4 6 6 5 3 2 1 1 1 6 7 4 3 1 7 7 7 2 3 5 6 8 7 5 6
3 4 3 1 3 8 7 8 7 18 16 15 18 14 9 6 5 4 3 2 2 0 2 7 2 6 7 2 4 6 8 12 7 4 5 10 4 2 3 5 4 4 6 7 7
3 4 3 3 3 7 11 11 15 11 8 10 6 8 15 12 9 12 9 4 2 4 2 5 5 2 11 5 2 4 5 13 17 16 11 6 14 14 6 8 8 8 5 4 7
3 3 2 4 3 9 10 9 14 14 6 12 12 21 13 11 8 8 12 8 7 4 4 1 3 3 7 12 9 11 11 11 18 16 16 16 17 8 7 6 5 9 4 8 8
3 7 7 8 6 6 11 12 13 14 14 15 11 10 14 11 13 16 16 17 6 10 6 7 5 4 5 2 3 10 19 21 9 8 13 17 15 3 8 10 9 7 8 11 10
Wind_Direction
354 355 355 355 352 348 344 338 335 331 328 327 328 323 325 319 311 251 246 117 102 75 331 270 228 228 250 242 239 228 248 245 251 256 233 109 163 124 31 317 8 97 53 92 118
352 350 347 347 348 344 338 335 334 332 325 323 324 320 324 321 297 256 151 116 93 165 236 225 211 206 213 225 199 216 222 233 256 12 13 102 318 137 168 201 196 128 106 126 149
10 5 353 347 341 337 333 332 329 327 324 317 316 318 320 316 282 158 96 112 190 225 258 267 245 200 217 216 207 214 239 229 278 34 27 332 238 243 222 252 200 198 164 166 185
14 5 359 353 344 336 333 329 327 324 321 314 308 309 323 287 287 101 93 280 222 247 242 227 251 197 211 216 208 250 228 254 59 64 352 265 340 313 226 243 72 49 92 145 172
9 2 355 349 340 337 334 332 326 321 313 305 294 295 291 229 259 132 155 175 221 206 220 213 221 200 214 205 246 224 259 283 323 104 262 287 261 260 271 257 141 122 98 176 199
3 356 352 349 342 335 330 330 328 319 313 299 272 264 233 244 114 88 123 140 261 202 219 233 228 242 301 266 228 38 288 244 247 299 240 255 266 248 241 228 224 171 186 217 208
359 353 350 348 341 336 329 325 329 324 319 300 228 215 248 250 126 112 158 78 0 260 230 253 323 251 315 291 38 19 301 290 215 205 256 83 270 235 222 149 201 241 204 203 208
348 346 344 344 341 336 331 323 324 319 321 271 188 210 261 8 54 149 161 120 165 246 304 72 288 350 332 105 197 212 219 232 281 181 154 179 263 319 185 173 202 219 209 198 200
347 343 339 338 336 332 328 316 314 300 188 149 193 242 262 196 226 128 244 138 125 127 359 202 271 196 216 211 201 225 243 200 168 176 148 195 273 96 110 201 215 207 197 171 192
349 348 344 334 331 327 324 306 271 231 213 207 265 266 175 161 114 137 102 160 191 138 119 208 219 212 220 191 209 184 217 247 204 196 229 221 256 266 195 205 221 206 195 189 172
345 344 340 339 329 322 328 315 289 196 241 256 277 253 166 93 188 196 149 159 188 233 176 200 209 218 203 219 236 58 323 307 86 88 219 231 260 256 246 204 203 221 206 199 171
351 345 338 332 328 315 297 319 51 326 296 259 253 250 124 192 162 163 172 188 194 208 190 151 235 230 266 216 234 227 270 264 73 136 155 280 274 268 241 224 198 200 222 204 158
352 348 347 337 323 330 330 40 344 319 266 289 210 220 180 184 224 177 175 195 202 212 211 209 166 97 173 165 172 226 220 245 160 188 226 297 275 234 208 197 117 223 196 208 175
343 343 346 339 359 328 22 346 333 327 277 261 182 139 150 225 222 95 214 186 205 240 193 237 182 160 176 220 172 224 97 103 111 174 242 180 277 282 183 200 197 213 224 219 168
344 338 341 332 312 320 343 332 312 255 318 82 138 88 152 191 132 153 1 67 195 192 154 198 161 191 181 214 175 198 91 121 131 240 34 225 100 267 95 207 190 191 204 187 150
343 337 327 323 306 351 332 313 275 112 246 229 119 172 169 211 177 136 170 267 345 118 232 66 345 297 42 62 11 140 105 115 286 254 323 221 167 270 194 225 171 156 181 157 149
340 332 322 301 298 333 332 287 139 223 332 292 258 174 224 175 201 189 179 183 177 154 198 138 189 102 183 89 41 212 147 83 343 4 223 13 40 245 202 292 151 155 169 169 156
339 326 311 290 293 286 313 252 218 228 240 292 296 224 227 183 221 192 181 208 222 254 187 175 256 169 187 215 191 194 192 185 198 191 210 75 232 255 30 119 83 116 161 163 164
332 322 307 15 349 346 264 215 220 218 201 193 78 191 226 245 237 176 224 204 214 197 192 185 203 87 24 20 38 185 202 188 102 97 65 207 263 267 144 142 130 146 147 176 171
321 319 348 352 334 301 232 239 243 236 30 310 234 185 241 201 190 182 200 227 218 174 98 299 121 222 123 304 131 146 297 100 316 169 247 275 264 239 202 190 186 184 191 198 188
319 328 44 5 318 260 230 232 252 263 288 269 241 270 228 210 210 211 230 285 176 134 179 176 152 111 119 204 180 143 266 248 125 206 186 187 257 215 201 185 184 188 186 186 177
299 305 316 358 305 223 253 245 325 291 308 315 299 271 228 245 234 241 228 184 103 140 168 222 150 183 207 131 340 208 198 200 156 239 237 144 268 339 39 143 152 167 163 149 150
291 278 294 352 267 256 297 309 319 304 282 262 289 270 236 206 243 208 231 7 126 162 161 170 211 180 263 334 186 214 193 212 100 104 206 151 255 344 35 83 95 134 150 166 174
292 295 272 181 294 290 302 317 313 328 306 293 266 264 288 269 233 268 258 144 51 54 53 139 203 202 189 117 122 193 200 195 172 185 171 216 273 246 215 192 159 191 199 201 205
210 238 205 240 273 297 306 293 303 310 339 333 312 323 286 262 264 260 226 145 192 192 169 155 203 220 270 260 245 245 185 198 210 219 198 212 215 241 201 202 207 205 212 235 245
249 252 283 265 267 272 283 282 285 290 291 317 305 307 312 317 3 344 353 214 189 156 154 277 218 187 263 242 219 240 227 214 219 230 258 273 269 234 252 207 189 209 181 240 235
227 259 219 216 223 256 249 267 278 291 285 277 304 327 320 327 324 304 287 270 246 159 153 153 159 139 253 320 149 280 228 217 194 193 200 227 236 249 246 248 229 219 204 228 231